Torna al catalogo

CORVUS BC1

AttivoScienzaSSO
NORAD 42847·PAYLOAD·🇺🇸 United States

Lanciato Jul 14, 2017 da Baikonur Cosmodrome

Loading…

Prossimi Passaggi (prossime 24 ore)

TLE

AggiornatoSource: Space-Track

Epoca: Sep 14, 2026, 09:08 UTC

1 42847U 17042Y   26257.38108692  .00002773  00000-0  18931-3 0  9992
2 42847  97.4212  56.2233 0012789 137.5243 222.6977 15.06916439500526

Traccia CORVUS BC1 in tempo reale con AllMySat

Download on the App Store